2022-087C (53301 NORAD) Tracking and Keplerian Element Data

This shows tracking and keplerian element data for the satellite.

Feedback or suggestion? Click here.




ElementValue
Catalog53301
Name2022-087C
Epoch Orbit1781
Epoch Day325.25820625
Epoch Year2022
RAAN37.7982
Inclination97.3923
Eccentricity0.0014468
Argument of Perigee237.4346
Mean Anonmoly207.1336
Mean Motion15.22770416
Decay Rate5.073E-05
L11 53301U 22087C 22325.25820625 .00005073 00000+0 21963-3 0 9993
L22 53301 97.3923 37.7982 0014468 237.4346 207.1336 15.22770416 17819



Live tracking and technical data element details for 2022-087C (NORAD 53301). 2022-087C can be tracked NOW for your location showing map with azimuth and elevation plus other details from your city location.







IsCatalogInMostPopularTable: catalog: 53301, numindb: 5
Update: records affected: 1



GetName: 53301 2022-087C

Hit Count: updated at: Thu, 08 Dec 2022 10:33:54 GMT